[[{"header":{"parameterUnit":"m.s-1","parameterCategory":1,"la1":30.2991,"la2":30.254,"lo1":-89.0895,"lo2":-89.0444,"dy":0.0017,"dx":0.0017,"nx":28,"ny":28,"refTime":"2024-05-06T21:00:00:Z","depth":0,"parameterNumber":2,"parameterNumberName":"U-component_of_WINDS"},"data":[0,0,0,0,0,0,0,0,0,0,0,0,0,0,0,0,0,0,0,0,0,0,0,0,0,0,0,0,0,0,0,0,0,0,0,0,0,0,0,0,0,0,0,0,0,0,0,0,0,0,0,0,0,0,0,0,0,0,-0.8248,-0.8247,0,-0.8224,-0.8224,-0.8224,-0.8224,-0.8224,-0.8225,-0.8225,-0.8197,-0.8196,-0.8195,0,0,0,0,0,0,0,0,0,0,0,0,0,-0.8289,-0.8288,-0.8248,-0.8247,-0.8247,-0.8224,-0.8224,-0.8224,-0.8224,-0.8224,-0.8225,-0.8225,-0.8197,-0.8196,-0.8195,0,0,0,0,0,0,0,0,0,0,0,0,0,-0.8269,-0.8288,-0.8248,-0.8245,-0.8244,-0.8224,-0.8224,-0.8224,-0.8224,-0.8224,-0.8225,-0.8225,-0.8197,-0.8196,-0.8194,-0.8175,0,0,-0.819,-0.8189,0,0,0,0,0,0,0,0,-0.827,-0.8267,-0.8245,-0.8245,-0.8244,-0.8228,-0.8228,-0.8207,-0.8224,-0.8231,-0.8225,-0.8225,-0.8206,-0.8204,-0.8198,-0.8174,-0.8173,-0.8189,-0.8188,-0.8188,-0.8187,0,0,0,0,0,0,0,-0.8272,-0.8268,-0.8238,-0.8245,-0.8244,-0.8243,-0.8241,-0.8224,-0.8216,-0.8231,-0.8231,-0.8228,-0.8206,-0.82,-0.8198,-0.8172,-0.8189,-0.8188,-0.8187,-0.8186,-0.8131,-0.8131,0,0,0,0,0,0,-0.8274,-0.827,-0.8239,-0.8238,-0.8259,-0.8242,-0.824,-0.8232,-0.8217,-0.8215,-0.8228,-0.8228,-0.8202,-0.82,-0.8197,-0.8174,-0.8188,-0.8186,-0.8185,-0.8132,-0.8131,-0.813,0,0,0,0,0,0,-0.8275,-0.8271,-0.824,-0.8254,-0.825,-0.8241,-0.8233,-0.8232,-0.8226,-0.8214,-0.8212,-0.8223,-0.8203,-0.8199,-0.8181,-0.8173,-0.8186,-0.8184,-0.8132,-0.8131,-0.8131,-0.8127,0,0,0,0,0,0,-0.8276,-0.8272,-0.8265,-0.8254,-0.8249,-0.8226,-0.8232,-0.8231,-0.8223,-0.8224,-0.821,-0.8208,-0.8203,-0.8183,-0.8179,-0.8171,-0.8183,-0.8133,-0.8132,-0.8131,-0.8128,-0.8126,-0.8125,0,0,0,0,0,-0.8278,-0.8264,-0.8265,-0.8261,-0.8241,-0.8225,-0.8222,-0.8218,-0.8223,-0.8216,-0.8208,-0.8208,-0.8174,-0.8181,-0.8177,-0.8168,-0.8133,-0.8132,-0.8131,-0.8129,-0.8127,-0.8125,0,0,0,0,0,0,-0.8273,-0.8262,-0.8263,-0.8245,-0.8236,-0.8225,-0.8216,-0.8216,-0.8204,-0.8205,-0.8199,-0.8196,-0.8178,-0.8171,-0.8179,-0.8149,-0.8154,-0.8152,-0.8154,-0.8152,-0.8151,-0.8153,-0.8182,0,0,0,0,0,-0.827,-0.826,-0.825,-0.8235,-0.8231,-0.8224,-0.8217,-0.8215,-0.8205,-0.8201,-0.8192,-0.8181,-0.8168,-0.816,-0.8147,-0.8127,-0.8124,-0.8119,-0.8117,-0.8116,-0.8114,-0.8104,-0.8101,-0.8127,-0.8127,-0.8127,0,0,-0.8263,-0.8256,-0.825,-0.8234,-0.8227,-0.8216,-0.8221,-0.8208,-0.8199,-0.8198,-0.8182,-0.8175,-0.8162,-0.8143,-0.8135,-0.8137,-0.8107,-0.8115,-0.8114,-0.8112,-0.8102,-0.81,-0.8098,-0.8126,-0.8126,-0.8126,0,0,-0.8246,-0.8239,-0.8227,-0.822,-0.821,-0.8205,-0.8202,-0.8192,-0.8188,-0.8171,-0.817,-0.8159,-0.8137,-0.8128,-0.8121,-0.8101,-0.81,-0.8097,-0.8089,-0.8079,-0.8077,-0.8075,-0.8068,-0.8066,-0.8095,-0.8095,-0.8095,0,-0.8238,-0.8222,-0.822,-0.8208,-0.8201,-0.8201,-0.8188,-0.8181,-0.8166,-0.8161,-0.8165,-0.8138,-0.8129,-0.8108,-0.8104,-0.8098,-0.8094,-0.8098,-0.8077,-0.8075,-0.8074,-0.8067,-0.8065,-0.8095,-0.8095,-0.8095,-0.8095,0,-0.8214,-0.8203,-0.8193,-0.8182,-0.8174,-0.8161,-0.8156,-0.8148,-0.8147,-0.8142,-0.8125,-0.8115,-0.8101,-0.8096,-0.8093,-0.8075,-0.8077,-0.8079,-0.8084,-0.8071,-0.8065,-0.8062,-0.8094,-0.8094,-0.8095,-0.8095,0,0,-0.8191,-0.818,-0.8176,-0.8171,-0.816,-0.8151,-0.8138,-0.8126,-0.812,-0.811,-0.8099,-0.808,-0.8083,-0.8074,-0.8071,-0.8062,-0.8048,-0.8065,-0.8065,-0.8062,-0.8027,-0.8026,-0.8023,-0.8047,-0.8047,-0.8046,-0.8028,0,-0.8173,-0.8152,-0.815,-0.8131,-0.812,-0.8121,-0.811,-0.8102,-0.8097,-0.8087,-0.8081,-0.8068,-0.8072,-0.8067,-0.8058,-0.8051,-0.804,-0.8053,-0.8036,-0.8036,-0.8039,-0.8019,-0.8018,-0.8001,-0.8025,-0.8025,-0.8025,0,-0.8148,-0.814,-0.812,-0.8112,-0.8107,-0.8097,-0.8086,-0.8077,-0.8067,-0.8064,-0.8056,-0.8054,-0.804,-0.8047,-0.8027,-0.8036,-0.8029,-0.8025,-0.8024,-0.8022,-0.8029,-0.8017,-0.7995,-0.7993,-0.8021,-0.8021,-0.8021,0,-0.8135,-0.8118,-0.8104,-0.81,-0.8089,-0.8083,-0.8078,-0.8069,-0.8062,-0.8052,-0.8047,-0.8035,-0.8028,-0.8018,-0.8013,-0.8018,-0.7994,-0.8,-0.7991,-0.7991,-0.7985,-0.7986,-0.7962,-0.7981,-0.7981,-0.7981,-0.7981,0,-0.8114,-0.8102,-0.8098,-0.8089,-0.8076,-0.8073,-0.806,-0.8055,-0.8047,-0.8037,-0.8036,-0.8027,-0.8021,-0.801,-0.8006,-0.799,-0.7987,-0.7984,-0.7983,-0.7984,-0.7984,-0.7979,-0.798,-0.798,-0.7981,-0.7981,-0.7981,0,-0.8096,-0.8093,-0.8078,-0.8071,-0.8068,-0.8059,-0.8051,-0.8043,-0.8039,-0.8026,-0.8023,-0.8016,-0.8003,-0.7997,-0.7981,-0.7978,-0.7961,-0.7961,-0.7965,-0.7964,-0.7956,-0.7957,-0.7928,-0.7924,-0.7945,-0.7945,-0.7945,0,-0.8083,-0.8074,-0.8066,-0.806,-0.8056,-0.8046,-0.8039,-0.8036,-0.8029,-0.8019,-0.8011,-0.7999,-0.7989,-0.7969,-0.7961,-0.7949,-0.7948,-0.7939,-0.7946,-0.7948,-0.7948,-0.7949,-0.7948,-0.7938,-0.7938,-0.7937,-0.7937,0,-0.8061,-0.806,-0.8052,-0.8043,-0.8035,-0.8028,-0.802,-0.8015,-0.8011,-0.8003,-0.7991,-0.7983,-0.7968,-0.7955,-0.7943,-0.7937,-0.7936,-0.7935,-0.7933,-0.7934,-0.7936,-0.7935,-0.7961,-0.7936,-0.7936,-0.7936,-0.7936,-0.7936,-0.8046,-0.8038,-0.8031,-0.8022,-0.8016,-0.8009,-0.8001,-0.7997,-0.7988,-0.7976,-0.7974,-0.7962,-0.7952,-0.7936,-0.7929,-0.7919,-0.7921,-0.7916,-0.7915,-0.7915,-0.7914,-0.7939,-0.7916,-0.7916,-0.7916,-0.7916,-0.7916,0,-0.8024,-0.802,-0.8011,-0.8002,-0.7994,-0.7996,-0.7988,-0.7981,-0.797,-0.7962,-0.7953,-0.794,-0.7928,-0.792,-0.7908,-0.7901,-0.7901,-0.7898,-0.7899,-0.7897,-0.7913,-0.7917,-0.7899,-0.7899,-0.7899,-0.7899,-0.7899,-0.7899,-0.8011,-0.7999,-0.7997,-0.7982,-0.7978,-0.7967,-0.7962,-0.7955,-0.7949,-0.7935,-0.7926,-0.7921,-0.7914,-0.7901,-0.789,-0.7888,-0.7884,-0.7881,-0.7879,-0.7894,-0.7896,-0.7898,-0.7901,-0.788,-0.788,-0.7864,-0.7864,-0.7864]},{"header":{"parameterUnit":"m.s-1","parameterCategory":1,"la1":30.2991,"la2":30.254,"lo1":-89.0895,"lo2":-89.0444,"dy":0.0017,"dx":0.0017,"nx":28,"ny":28,"refTime":"2024-05-06T21:00:00:Z","depth":0,"parameterNumber":3,"parameterNumberName":"V-component_of_WINDS"},"data":[0,0,0,0,0,0,0,0,0,0,0,0,0,0,0,0,0,0,0,0,0,0,0,0,0,0,0,0,0,0,0,0,0,0,0,0,0,0,0,0,0,0,0,0,0,0,0,0,0,0,0,0,0,0,0,0,0,0,6.7256,6.7257,0,6.7331,6.7332,6.7332,6.7279,6.7277,6.7275,6.7272,6.7344,6.7348,6.7352,0,0,0,0,0,0,0,0,0,0,0,0,0,6.7062,6.7066,6.7256,6.7257,6.7258,6.7331,6.7332,6.7333,6.728,6.7277,6.7274,6.7271,6.7342,6.7347,6.7352,0,0,0,0,0,0,0,0,0,0,0,0,0,6.7142,6.7067,6.7256,6.7241,6.724,6.733,6.7332,6.7333,6.728,6.7277,6.7273,6.727,6.7341,6.7347,6.7353,6.7461,0,0,6.7371,6.7374,0,0,0,0,0,0,0,0,6.7138,6.715,6.7242,6.7242,6.7241,6.7292,6.7289,6.7376,6.7281,6.7265,6.7272,6.7268,6.7329,6.7336,6.7357,6.7464,6.7467,6.7372,6.7376,6.7378,6.738,0,0,0,0,0,0,0,6.7133,6.7146,6.7286,6.7243,6.7243,6.7228,6.7235,6.7305,6.7316,6.7266,6.7262,6.7272,6.7328,6.7352,6.7359,6.7468,6.7372,6.7377,6.7381,6.7383,6.7666,6.7669,0,0,0,0,0,0,6.7129,6.7142,6.7283,6.7288,6.718,6.7234,6.7243,6.7279,6.7315,6.7317,6.7275,6.7269,6.7343,6.7352,6.7361,6.7489,6.7378,6.7384,6.7388,6.7662,6.7666,6.7671,0,0,0,0,0,0,6.7125,6.7142,6.728,6.7214,6.723,6.7241,6.7283,6.7283,6.7306,6.7322,6.7323,6.7298,6.734,6.7352,6.7436,6.749,6.7387,6.7392,6.7657,6.7663,6.7669,6.7746,0,0,0,0,0,0,6.712,6.7141,6.7184,6.7215,6.7234,6.7356,6.7286,6.7287,6.7317,6.7311,6.7343,6.7345,6.7339,6.7428,6.7443,6.7497,6.7397,6.7652,6.766,6.7667,6.7739,6.7754,6.7767,0,0,0,0,0,6.7113,6.7202,6.7186,6.7204,6.7288,6.736,6.737,6.7362,6.7322,6.7364,6.7374,6.7344,6.7483,6.7437,6.7453,6.751,6.7649,6.7658,6.7666,6.7732,6.7751,6.7766,0,0,0,0,0,0,6.7175,6.7206,6.7189,6.7291,6.7323,6.7351,6.7403,6.7382,6.7425,6.7417,6.7404,6.7412,6.75,6.7513,6.7462,6.7616,6.7559,6.7571,6.7604,6.7621,6.7635,6.7629,6.7402,0,0,0,0,0,6.7201,6.7259,6.7282,6.7369,6.7387,6.7393,6.7423,6.7415,6.7447,6.746,6.7475,6.7506,6.7556,6.759,6.7637,6.7741,6.7745,6.7788,6.7802,6.7813,6.7823,6.7877,6.7896,6.7699,6.7699,6.7699,0,0,6.7255,6.7279,6.7315,6.7382,6.7406,6.7464,6.7404,6.7468,6.751,6.7469,6.7549,6.7562,6.7595,6.7689,6.7731,6.7703,6.7879,6.7824,6.7833,6.7837,6.7888,6.7906,6.7923,6.7705,6.7704,6.7703,0,0,6.7381,6.7406,6.7481,6.7507,6.7544,6.7547,6.7565,6.7596,6.7603,6.7684,6.7654,6.7702,6.779,6.7814,6.7838,6.7973,6.7947,6.7989,6.8061,6.8114,6.813,6.8143,6.819,6.8207,6.8,6.8,6.8,0,6.7443,6.753,6.7522,6.7588,6.7618,6.7585,6.7659,6.7684,6.7734,6.7754,6.7722,6.783,6.7851,6.7949,6.7982,6.8003,6.8021,6.7985,6.8128,6.8142,6.8154,6.8198,6.8216,6.8005,6.8004,6.8003,6.8003,0,6.7603,6.7664,6.772,6.777,6.7806,6.7876,6.7877,6.7914,6.7902,6.7907,6.7989,6.8012,6.8063,6.8085,6.8074,6.8182,6.8163,6.813,6.8073,6.8178,6.8219,6.8236,6.8011,6.801,6.8008,6.8007,0,0,6.7771,6.7816,6.7836,6.7858,6.7897,6.7943,6.801,6.8061,6.8092,6.8128,6.8182,6.8257,6.8227,6.8254,6.8245,6.8291,6.8394,6.8252,6.8253,6.8276,6.8512,6.8536,6.8556,6.8377,6.8381,6.8383,6.8509,0,6.7898,6.8018,6.8012,6.8123,6.8178,6.8147,6.8205,6.8234,6.8241,6.8287,6.8294,6.8346,6.8303,6.8319,6.8364,6.8372,6.8441,6.8363,6.8426,6.8428,6.8418,6.8577,6.8603,6.872,6.8525,6.8528,6.853,0,6.8063,6.8105,6.8223,6.8252,6.8274,6.8327,6.8373,6.8418,6.8449,6.845,6.8481,6.8464,6.853,6.8472,6.8561,6.8508,6.8533,6.8541,6.8545,6.855,6.8485,6.8584,6.8758,6.8775,6.8555,6.8553,6.8551,0,6.8172,6.8258,6.8339,6.8359,6.8395,6.8433,6.8449,6.8477,6.8508,6.8546,6.8566,6.8612,6.8636,6.8671,6.8666,6.8624,6.8756,6.8698,6.8758,6.8758,6.8786,6.8784,6.8964,6.8805,6.8804,6.8804,6.8804,0,6.8314,6.8386,6.8388,6.8437,6.8517,6.8509,6.8587,6.8599,6.8624,6.8673,6.8649,6.8696,6.8687,6.8733,6.8729,6.8803,6.8814,6.8816,6.8814,6.8817,6.8817,6.8833,6.8824,6.8809,6.8808,6.8807,6.8806,0,6.8448,6.8453,6.8538,6.8566,6.8575,6.8632,6.8654,6.87,6.8705,6.8768,6.8782,6.8789,6.8842,6.8841,6.8901,6.8898,6.8988,6.8977,6.8978,6.8975,6.9034,6.9028,6.9229,6.9254,6.908,6.9082,6.9083,0,6.8539,6.8594,6.8627,6.866,6.8679,6.8731,6.8762,6.8756,6.8789,6.8828,6.8868,6.8919,6.8959,6.9045,6.9054,6.9099,6.9088,6.9156,6.9095,6.9096,6.9087,6.9083,6.9088,6.9167,6.9169,6.9171,6.9172,0,6.8697,6.8696,6.8743,6.8791,6.8829,6.8865,6.8899,6.8926,6.8923,6.8961,6.9015,6.9047,6.9108,6.9158,6.9201,6.9216,6.9193,6.9191,6.9207,6.9211,6.9208,6.9209,6.9009,6.9186,6.9185,6.9184,6.9183,6.9183,6.8811,6.8858,6.8889,6.8941,6.8966,6.8998,6.9042,6.9052,6.9098,6.9149,6.9141,6.9202,6.9229,6.9285,6.9304,6.9349,6.9325,6.9349,6.9354,6.936,6.9366,6.9202,6.9357,6.9357,6.9357,6.9356,6.9356,0,6.8967,6.8985,6.9034,6.9082,6.9123,6.9099,6.9135,6.917,6.9224,6.9253,6.9293,6.9354,6.9402,6.9416,6.9461,6.9495,6.9486,6.9507,6.9504,6.9507,6.9386,6.9367,6.9514,6.9514,6.9514,6.9514,6.9514,6.9514,6.9053,6.9131,6.9133,6.9222,6.9239,6.9299,6.9321,6.935,6.9372,6.9443,6.9483,6.9492,6.9514,6.9561,6.9603,6.9605,6.9622,6.9648,6.9646,6.9532,6.9516,6.9501,6.9483,6.9652,6.9653,6.9764,6.9765,6.9766]}]]